Time,TemperatureF,DewpointF,PressureIn,WindDirection,WindDirectionDegrees,WindSpeedMPH,WindSpeedGustMPH,Humidity,HourlyPrecipIn,Conditions,Clouds,dailyrainin,SoftwareType,DateUTC
2013-01-23 00:13:00,21.9,-99.9,30.39,SSE,160,1.0,4.0,0,0.00,,,0.00,weatherlink.com 1.10,2013-01-23 07:13:00,
2013-01-23 00:28:00,22.4,-99.9,30.38,South,189,0.0,5.0,0,0.00,,,0.00,weatherlink.com 1.10,2013-01-23 07:28:00,
2013-01-23 00:43:00,23.5,-99.9,30.38,SSE,164,4.0,6.0,0,0.00,,,0.00,weatherlink.com 1.10,2013-01-23 07:43:00,
2013-01-23 00:58:00,24.4,-99.9,30.39,WNW,285,0.0,4.0,0,0.00,,,0.00,weatherlink.com 1.10,2013-01-23 07:58:00,
2013-01-23 01:13:00,25.1,-99.9,30.38,SW,226,0.0,6.0,0,0.00,,,0.00,weatherlink.com 1.10,2013-01-23 08:13:00,
2013-01-23 01:28:00,25.2,-99.9,30.38,South,173,1.0,5.0,0,0.00,,,0.00,weatherlink.com 1.10,2013-01-23 08:28:00,
2013-01-23 01:43:00,25.2,-99.9,30.38,South,189,2.0,4.0,0,0.00,,,0.00,weatherlink.com 1.10,2013-01-23 08:43:00,
2013-01-23 01:58:00,25.6,-99.9,30.37,SSW,210,1.0,6.0,0,0.00,,,0.00,weatherlink.com 1.10,2013-01-23 08:58:00,
2013-01-23 02:13:00,24.8,-99.9,30.38,SSW,211,0.0,3.0,0,0.00,,,0.00,weatherlink.com 1.10,2013-01-23 09:13:00,
2013-01-23 02:29:00,24.1,-99.9,30.38,SSW,193,0.0,3.0,0,0.00,,,0.00,weatherlink.com 1.10,2013-01-23 09:29:00,
2013-01-23 02:44:00,25.3,-99.9,30.38,SSW,210,0.0,4.0,0,0.00,,,0.00,weatherlink.com 1.10,2013-01-23 09:44:00,
2013-01-23 02:59:00,25.5,-99.9,30.38,SSW,199,1.0,4.0,0,0.00,,,0.00,weatherlink.com 1.10,2013-01-23 09:59:00,
2013-01-23 03:14:00,25.4,-99.9,30.38,South,187,2.0,3.0,0,0.00,,,0.00,weatherlink.com 1.10,2013-01-23 10:14:00,
2013-01-23 03:29:00,25.2,-99.9,30.38,South,191,2.0,3.0,0,0.00,,,0.00,weatherlink.com 1.10,2013-01-23 10:29:00,
2013-01-23 03:44:00,25.1,-99.9,30.39,South,181,1.0,3.0,0,0.00,,,0.00,weatherlink.com 1.10,2013-01-23 10:44:00,
2013-01-23 03:59:00,25.3,-99.9,30.38,SSE,164,1.0,3.0,0,0.00,,,0.00,weatherlink.com 1.10,2013-01-23 10:59:00,
2013-01-23 04:14:00,25.4,-99.9,30.38,SE,131,0.0,2.0,0,0.00,,,0.00,weatherlink.com 1.10,2013-01-23 11:14:00,
2013-01-23 04:29:00,25.2,-99.9,30.38,SSW,198,1.0,3.0,0,0.00,,,0.00,weatherlink.com 1.10,2013-01-23 11:29:00,
2013-01-23 04:44:00,24.9,-99.9,30.38,SW,220,1.0,4.0,0,0.00,,,0.00,weatherlink.com 1.10,2013-01-23 11:44:00,
2013-01-23 04:59:00,24.7,-99.9,30.37,SSW,207,1.0,4.0,0,0.00,,,0.00,weatherlink.com 1.10,2013-01-23 11:59:00,
2013-01-23 05:14:00,24.4,-99.9,30.38,SSE,154,2.0,3.0,0,0.00,,,0.00,weatherlink.com 1.10,2013-01-23 12:14:00,
2013-01-23 05:29:00,25.0,-99.9,30.38,South,180,0.0,3.0,0,0.00,,,0.00,weatherlink.com 1.10,2013-01-23 12:29:00,
2013-01-23 05:44:00,25.1,-99.9,30.38,South,185,0.0,3.0,0,0.00,,,0.00,weatherlink.com 1.10,2013-01-23 12:44:00,
2013-01-23 06:00:00,25.5,-99.9,30.38,SSW,206,3.0,4.0,0,0.00,,,0.00,weatherlink.com 1.10,2013-01-23 13:00:00,
2013-01-23 06:15:00,25.6,-99.9,30.39,SSW,205,2.0,3.0,0,0.00,,,0.00,weatherlink.com 1.10,2013-01-23 13:15:00,
2013-01-23 06:30:00,25.8,-99.9,30.39,South,189,1.0,3.0,0,0.00,,,0.00,weatherlink.com 1.10,2013-01-23 13:30:00,
2013-01-23 06:45:00,26.1,-99.9,30.39,ESE,108,1.0,4.0,0,0.00,,,0.00,weatherlink.com 1.10,2013-01-23 13:45:00,
2013-01-23 07:00:00,26.4,-99.9,30.39,East,86,1.0,6.0,0,0.00,,,0.00,weatherlink.com 1.10,2013-01-23 14:00:00,
2013-01-23 07:15:00,26.3,-99.9,30.39,ENE,71,0.0,3.0,0,0.00,,,0.00,weatherlink.com 1.10,2013-01-23 14:15:00,
2013-01-23 07:30:00,26.5,-99.9,30.39,ENE,73,0.0,3.0,0,0.00,,,0.00,weatherlink.com 1.10,2013-01-23 14:30:00,
2013-01-23 07:45:00,26.3,-99.9,30.40,SSE,152,0.0,2.0,0,0.00,,,0.00,weatherlink.com 1.10,2013-01-23 14:45:00,
2013-01-23 08:00:00,26.2,-99.9,30.41,SSE,147,0.0,1.0,0,0.00,,,0.00,weatherlink.com 1.10,2013-01-23 15:00:00,
2013-01-23 08:15:00,26.4,-99.9,30.41,East,88,0.0,3.0,0,0.00,,,0.00,weatherlink.com 1.10,2013-01-23 15:15:00,
2013-01-23 08:30:00,27.0,-99.9,30.41,NW,322,4.0,8.0,0,0.00,,,0.00,weatherlink.com 1.10,2013-01-23 15:30:00,
2013-01-23 08:45:00,27.3,-99.9,30.41,NNE,15,1.0,4.0,0,0.00,,,0.00,weatherlink.com 1.10,2013-01-23 15:45:00,
2013-01-23 09:00:00,27.7,-99.9,30.42,NNW,334,0.0,5.0,0,0.00,,,0.00,weatherlink.com 1.10,2013-01-23 16:00:00,
2013-01-23 09:15:00,27.9,-99.9,30.43,NNW,332,4.0,8.0,0,0.00,,,0.00,weatherlink.com 1.10,2013-01-23 16:15:00,
2013-01-23 09:31:00,28.0,-99.9,30.43,West,276,3.0,6.0,0,0.00,,,0.00,weatherlink.com 1.10,2013-01-23 16:31:00,
2013-01-23 09:46:00,28.4,-99.9,30.43,WNW,282,4.0,7.0,0,0.00,,,0.00,weatherlink.com 1.10,2013-01-23 16:46:00,
2013-01-23 10:01:00,29.7,-99.9,30.43,NW,318,4.0,8.0,0,0.00,,,0.00,weatherlink.com 1.10,2013-01-23 17:01:00,
2013-01-23 10:16:00,29.3,-99.9,30.42,North,4,0.0,4.0,0,0.00,,,0.00,weatherlink.com 1.10,2013-01-23 17:16:00,
2013-01-23 10:31:00,28.9,-99.9,30.43,NW,325,1.0,9.0,0,0.00,,,0.00,weatherlink.com 1.10,2013-01-23 17:31:00,
2013-01-23 10:46:00,28.7,-99.9,30.43,NW,311,0.0,6.0,0,0.00,,,0.00,weatherlink.com 1.10,2013-01-23 17:46:00,
2013-01-23 11:01:00,28.4,-99.9,30.43,NW,309,2.0,8.0,0,0.00,,,0.00,weatherlink.com 1.10,2013-01-23 18:01:00,
2013-01-23 11:16:00,28.3,-99.9,30.42,NW,305,3.0,6.0,0,0.00,,,0.00,weatherlink.com 1.10,2013-01-23 18:16:00,
2013-01-23 11:31:00,28.6,-99.9,30.42,WNW,292,4.0,7.0,0,0.00,,,0.00,weatherlink.com 1.10,2013-01-23 18:31:00,
2013-01-23 11:46:00,28.8,-99.9,30.42,NNW,339,3.0,8.0,0,0.00,,,0.00,weatherlink.com 1.10,2013-01-23 18:46:00,
2013-01-23 12:01:00,28.8,-99.9,30.41,NNW,339,5.0,8.0,0,0.00,,,0.00,weatherlink.com 1.10,2013-01-23 19:01:00,
2013-01-23 12:16:00,29.0,-99.9,30.41,North,4,6.0,6.0,0,0.00,,,0.00,weatherlink.com 1.10,2013-01-23 19:16:00,
2013-01-23 12:31:00,29.4,-99.9,30.40,North,354,1.0,5.0,0,0.00,,,0.00,weatherlink.com 1.10,2013-01-23 19:31:00,
2013-01-23 12:46:00,29.8,-99.9,30.40,North,354,2.0,7.0,0,0.00,,,0.00,weatherlink.com 1.10,2013-01-23 19:46:00,
2013-01-23 13:02:00,30.1,-99.9,30.39,WNW,301,0.0,4.0,0,0.00,,,0.00,weatherlink.com 1.10,2013-01-23 20:02:00,
2013-01-23 13:17:00,30.3,-99.9,30.39,NW,318,4.0,5.0,0,0.00,,,0.00,weatherlink.com 1.10,2013-01-23 20:17:00,
2013-01-23 13:32:00,29.9,-99.9,30.39,NW,312,0.0,6.0,0,0.00,,,0.00,weatherlink.com 1.10,2013-01-23 20:32:00,
2013-01-23 13:47:00,29.9,-99.9,30.38,North,359,5.0,5.0,0,0.00,,,0.00,weatherlink.com 1.10,2013-01-23 20:47:00,
2013-01-23 14:02:00,29.6,-99.9,30.38,NW,321,2.0,4.0,0,0.00,,,0.00,weatherlink.com 1.10,2013-01-23 21:02:00,
2013-01-23 14:17:00,29.3,-99.9,30.38,West,280,1.0,5.0,0,0.00,,,0.00,weatherlink.com 1.10,2013-01-23 21:17:00,
2013-01-23 14:32:00,29.4,-99.9,30.38,NW,323,0.0,3.0,0,0.00,,,0.00,weatherlink.com 1.10,2013-01-23 21:32:00,
2013-01-23 14:47:00,28.9,-99.9,30.38,NNW,329,0.0,4.0,0,0.00,,,0.00,weatherlink.com 1.10,2013-01-23 21:47:00,
2013-01-23 15:02:00,28.5,-99.9,30.38,WNW,295,2.0,4.0,0,0.00,,,0.00,weatherlink.com 1.10,2013-01-23 22:02:00,
2013-01-23 15:17:00,28.4,-99.9,30.37,WNW,301,0.0,4.0,0,0.00,,,0.00,weatherlink.com 1.10,2013-01-23 22:17:00,
2013-01-23 15:32:00,27.8,-99.9,30.37,WNW,293,2.0,3.0,0,0.00,,,0.00,weatherlink.com 1.10,2013-01-23 22:32:00,
2013-01-23 15:47:00,27.5,-99.9,30.37,WNW,295,1.0,3.0,0,0.00,,,0.00,weatherlink.com 1.10,2013-01-23 22:47:00,
2013-01-23 16:02:00,26.9,-99.9,30.37,WNW,290,0.0,3.0,0,0.00,,,0.00,weatherlink.com 1.10,2013-01-23 23:02:00,
2013-01-23 16:18:00,26.4,-99.9,30.37,SW,223,1.0,4.0,0,0.00,,,0.00,weatherlink.com 1.10,2013-01-23 23:18:00,
2013-01-23 16:33:00,26.2,-62.0,30.36,SW,235,2.0,3.0,1,0.00,,,0.00,weatherlink.com 1.10,2013-01-23 23:33:00,
2013-01-23 16:48:00,26.1,-40.0,30.37,SSW,195,4.0,5.0,4,0.00,,,0.00,weatherlink.com 1.10,2013-01-23 23:48:00,
2013-01-23 17:03:00,26.1,-99.9,30.37,SSW,199,6.0,8.0,0,0.00,,,0.00,weatherlink.com 1.10,2013-01-24 00:03:00,
2013-01-23 17:18:00,26.6,-99.9,30.36,South,183,8.0,9.0,0,0.00,,,0.00,weatherlink.com 1.10,2013-01-24 00:18:00,
2013-01-23 17:33:00,26.2,-99.9,30.37,SSW,207,7.0,10.0,0,0.00,,,0.00,weatherlink.com 1.10,2013-01-24 00:33:00,
2013-01-23 17:48:00,26.2,-99.9,30.37,SSW,200,8.0,10.0,0,0.00,,,0.00,weatherlink.com 1.10,2013-01-24 00:48:00,
2013-01-23 18:03:00,26.1,-99.9,30.37,SSW,201,8.0,9.0,0,0.00,,,0.00,weatherlink.com 1.10,2013-01-24 01:03:00,
2013-01-23 18:18:00,26.2,-99.9,30.36,South,189,7.0,10.0,0,0.00,,,0.00,weatherlink.com 1.10,2013-01-24 01:18:00,
2013-01-23 18:33:00,26.3,-99.9,30.36,SSW,197,8.0,10.0,0,0.00,,,0.00,weatherlink.com 1.10,2013-01-24 01:33:00,
2013-01-23 18:48:00,27.0,-99.9,30.35,South,179,6.0,11.0,0,0.00,,,0.00,weatherlink.com 1.10,2013-01-24 01:48:00,
2013-01-23 19:03:00,27.8,-99.9,30.35,SSW,194,7.0,9.0,0,0.00,,,0.00,weatherlink.com 1.10,2013-01-24 02:03:00,
2013-01-23 19:18:00,27.6,-99.9,30.35,SW,222,6.0,9.0,0,0.00,,,0.00,weatherlink.com 1.10,2013-01-24 02:18:00,
2013-01-23 19:33:00,27.8,-99.9,30.34,SSW,204,9.0,12.0,0,0.00,,,0.00,weatherlink.com 1.10,2013-01-24 02:33:00,
2013-01-23 19:49:00,27.8,-99.9,30.33,SSE,168,10.0,12.0,0,0.00,,,0.00,weatherlink.com 1.10,2013-01-24 02:49:00,
2013-01-23 20:04:00,28.5,-99.9,30.33,SSW,196,7.0,13.0,0,0.00,,,0.00,weatherlink.com 1.10,2013-01-24 03:04:00,
2013-01-23 20:19:00,28.7,-99.9,30.33,SW,227,7.0,14.0,0,0.00,,,0.00,weatherlink.com 1.10,2013-01-24 03:19:00,
2013-01-23 20:34:00,29.3,-99.9,30.32,SSW,212,7.0,12.0,0,0.00,,,0.00,weatherlink.com 1.10,2013-01-24 03:34:00,
2013-01-23 20:49:00,29.7,-99.9,30.31,SSW,199,7.0,14.0,0,0.00,,,0.00,weatherlink.com 1.10,2013-01-24 03:49:00,
2013-01-23 21:04:00,29.9,-99.9,30.31,WSW,247,4.0,13.0,0,0.00,,,0.00,weatherlink.com 1.10,2013-01-24 04:04:00,
2013-01-23 21:19:00,30.3,-99.9,30.30,SW,215,9.0,18.0,0,0.00,,,0.00,weatherlink.com 1.10,2013-01-24 04:19:00,
2013-01-23 21:34:00,30.1,-99.9,30.30,SW,217,7.0,12.0,0,0.00,,,0.00,weatherlink.com 1.10,2013-01-24 04:34:00,
2013-01-23 21:49:00,30.5,-99.9,30.29,SSW,205,6.0,11.0,0,0.00,,,0.00,weatherlink.com 1.10,2013-01-24 04:49:00,
2013-01-23 22:04:00,30.7,-99.9,30.29,SSW,203,6.0,14.0,0,0.00,,,0.00,weatherlink.com 1.10,2013-01-24 05:04:00,
2013-01-23 22:19:00,30.4,-99.9,30.27,SSW,201,5.0,14.0,0,0.00,,,0.00,weatherlink.com 1.10,2013-01-24 05:19:00,
2013-01-23 22:34:00,30.5,-99.9,30.27,SW,225,11.0,19.0,0,0.00,,,0.00,weatherlink.com 1.10,2013-01-24 05:34:00,
2013-01-23 22:49:00,30.5,-99.9,30.27,SW,217,9.0,13.0,0,0.00,,,0.00,weatherlink.com 1.10,2013-01-24 05:49:00,
2013-01-23 23:04:00,30.0,-99.9,30.26,SSW,209,7.0,11.0,0,0.00,,,0.00,weatherlink.com 1.10,2013-01-24 06:04:00,
2013-01-23 23:20:00,30.2,-99.9,30.25,SW,221,6.0,13.0,0,0.00,,,0.00,weatherlink.com 1.10,2013-01-24 06:20:00,
2013-01-23 23:35:00,30.0,-99.9,30.25,SW,215,6.0,15.0,0,0.00,,,0.00,weatherlink.com 1.10,2013-01-24 06:35:00,
2013-01-23 23:50:00,29.6,-99.9,30.24,SSW,210,6.0,11.0,0,0.00,,,0.00,weatherlink.com 1.10,2013-01-24 06:50:00,